Unicom:                    122.8

AWOS:                  118.275

Elevation           1458’ MSL

TPA:                   2500’ MSL

06/24:         5003’ L   75’ W

PAPI:       06/Left     24/Left

(Operate lights on unicom freq.)

Traffic Pattern: Left

Beacon: Sunset to Sunrise

Windsock: yes, lighted

Segmented Circle: No

 

Cleveland Center: 126.72/291.65

FSS: Altoona

[Source: ADDS]
METAR
KFKL 051256Z AUTO 20005KT 2 1/2SM BR OVC001 18/17 A2993 RMK AO2 SLP132 T01780172 =
KFKL 051155Z 0512/0612 18004KT 1/4SM FG OVC001 FM051300 20003KT 3SM BR BKN007 FM051500 20005KT P6SM BKN010 FM051700 21005KT P6SM BKN020 FM051900 22005KT P6SM BKN035 FM060000 23003KT P6SM SCT035
TAF
KFKL 051155Z 0512/0612 18004KT 1/4SM FG OVC001 FM051300 20003KT 3SM BR BKN007 FM051500 20005KT P6SM BKN010 FM051700 21005KT P6SM BKN020 FM051900 22005KT P6SM BKN035 FM060000 23003KT P6SM SCT035 =
[Source: ADDS]
METAR
KDUJ 051253Z AUTO 22005KT 2SM BR OVC002 18/17 A2993 RMK AO2 SLP128 T01780167 =
KDUJ 051120Z 0512/0612 24003KT 3SM BR OVC007 FM051500 23003KT P6SM OVC010 FM051800 24005KT P6SM BKN025 FM052100 25005KT P6SM BKN035 FM060000 25005KT P6SM SCT025
TAF
KDUJ 051120Z 0512/0612 24003KT 3SM BR OVC007 FM051500 23003KT P6SM OVC010 FM051800 24005KT P6SM BKN025 FM052100 25005KT P6SM BKN035 FM060000 25005KT P6SM SCT025 =

Contact

Address:



Hours: 8am - 4pm
Clarion Airport
395 Airport Road
Shippenville, PA 16254
manager@clarionairport.com
Phone:
814-226-9993
Fax:
814-226-4490

Contact Form

Send an Email